نمایش تمام مطالبی که دارای برچسب فارسی هستند

آموزش خواندن متار:

گزارشات هواشناسی شاملMETAR: هوای حاضر فرودگاهTAFO: پیش بینی برای شهر هاAREA FOR CAST : پیش بینی منطقه ایییک نمونه از METAR که مربوط به فرودگاه مهرآباد استOIII 122255Z 00000KT 2000 -SN BR FEW030CB FEW035 OVC09 M06/M06 Q1022 A3018 886.2خوب خواندن این گزارش به صورت زیر است

آموزش جامع و فارسی MD 82

این آموزش شامل :1-آموزش راه اندازی سیستم های هواپیما2-آموزش کامل FMC3-آموزش تیک اف4-آموزش تیک اف5-آموزش کروزو لندینگاین آموزش توسط استاد محمود رضا طهرانچی اصل ساخته شده است

5

کامل ترین آموزش فارسی A320

آموزش فارسی هواپیمای A320 Cold and Dark توسط استاد تایماز سپاهی مدت زمان ویدیو : 1 ساعت و 45 دقیقه       جهت دانلود هواپیما به لینک زیر بروید...

7

آموزش سیستم برق MD 80

[smartslider3 slider=2] چهارمین محصول اف اس سنتر که منتشر شد از جمله تایپ هایی که مورد علاقه ی کاربران شبیه ساز هست میتوان از این محصول نام برد حال به...

آموزش اختصاصی 747 PMDG

آموزش کامل و دقیق هواپیمای بویینگ 747 سری 400 محصول PMDGاگر با هواپیمای 747 آشنایی ندارید یا آشنایی نسبی دارید قطعا این ویدیو به شما کمک میکند

2

آموزش پرواز آنلاین (vatsim)

یکی از جذاب ترین چالش ها در شبیه ساز آنلاین پرواز کردن است   زیرا وقتی شما آنلاین پرواز کنید همانند واقعیت برج مراقبت دارید و آب و هوای انلاین...

آموزش مکالمات پرواز (فایل صوتی-فارسی)

یکی از مباحث مهم در پرواز توانایی ارتباط برقرار کردن با کنترلر هست این قسمت از سایت قطعا مهم ترین بخش از سایت هست که توسط اقای حسین حنیفی فایل...

2